Regional Weather Roundup
Issued by NWS

Home | Current Version | Previous Version | Text Only | Print | Product List | Glossary Off
Versions: 1 2 3 4 5 6 7 8 9 10 11 12 13 14 15 16 17 18 19 20 21 22 23 24 25 26 27 28 29 30 31 32 33 34 35 36 37 38 39 40 41 42 43 44 45 46 47 48 49 50

000
ASUS43 KIND 211009
RWRIN

WEATHER ROUNDUP FOR INDIANA
NATIONAL WEATHER SERVICE INDIANAPOLIS IN
600 AM EDT SUN SEP 21 2014

NOTE: "FAIR" INDICATES FEW OR NO CLOUDS BELOW 12,000 FEET WITH NO
SIGNIFICANT WEATHER AND/OR OBSTRUCTIONS TO VISIBILITY.

* - STATION DOES NOT REPORT WEATHER SUCH AS PRECIPITATION OR FOG.

+ - STATION NOT QUALITY CONTROLLED BY THE NATIONAL WEATHER SERVICE.
    USE DATA WITH CAUTION...ESPECIALLY DEWPOINT AND RELATIVE
    HUMIDITY OBSERVATIONS.

INZ001>003-010>013-019-020-211100-
NORTHWEST INDIANA

CITY           SKY/WX    TMP DP  RH WIND       PRES   REMARKS
GARY /AIRPORT/ PTCLDY    63  57  82 W13       29.79R
KNOX *+        PTCLDY    63  57  83 W9G18     29.76R
LA PORTE +     MOCLDY    62  59  90 W10G20    29.76S
MICHIGAN CITY+ CLOUDY    63  59  88 W9G17     29.77R
MONTICELLO +   CLOUDY    66  64  91 W15G26    29.79R
RENSSELAER +   MOCLDY    63  59  88 W9G18     29.81R
VALPARAISO     PTCLDY    61  56  83 W14G22    29.78R

$$

LMZ046-743>745-211100-
SOUTHERN LAKE MICHIGAN

STATION/POSITION TIME  TEMP WIND        PRES
                       AIR  DIR/SP/G
                 (UTC) (F)  (DEG/KT/KT) (MB)
MICHIGAN CITY    1000   64  260/ 23/ 27   N/A

$$

INZ004-005-014>016-021>024-211100-
NORTH CENTRAL INDIANA

CITY           SKY/WX    TMP DP  RH WIND       PRES   REMARKS
GOSHEN         CLOUDY   N/A N/A N/A W15       29.73R
LOGANSPORT +   CLOUDY    66  63  88 W13G18    29.78R
PERU/GRISSOM   MOCLDY    68  68 100 W15G28    29.76R
ROCHESTER +    PTCLDY    68  64  88 W10G17    29.76R
SOUTH BEND     CLOUDY    64  57  78 W16       29.75R
WARSAW +       CLOUDY    64  61  88 W24G32    29.74R

$$

INZ006>009-017-018-025>027-211100-
NORTHEAST INDIANA

CITY           SKY/WX    TMP DP  RH WIND       PRES   REMARKS
ANGOLA *+      MOCLDY    64  55  72 W14       29.70R
AUBURN +       CLEAR     63  59  88 W6        29.72R
FORT WAYNE     CLOUDY    69  66  90 W17G25    29.72S
HUNTINGTON +   CLOUDY    68  65  92 W16G29    29.73R

$$

INZ028-029-035-036-043>045-051>053-211100-
WEST CENTRAL INDIANA

CITY           SKY/WX    TMP DP  RH WIND       PRES   REMARKS
GREENCASTLE +  MOCLDY    68  66  94 CALM      29.84S
LAFAYETTE      MOCLDY    67  66  97 W13       29.80R
TERRE HAUTE    CLEAR     68  66  93 W8        29.84F

$$

INZ030>032-037>040-046>048-054>057-064-065-211100-
CENTRAL INDIANA

CITY           SKY/WX    TMP DP  RH WIND       PRES   REMARKS
CP ATTERBURY + CLOUDY    70  66  88 W7        29.84S
FRANKFORT +    CLOUDY   N/A N/A N/A W13       29.82R HAZE
GREENWOOD *+   CLOUDY    72  70  94 W9G16     29.83S
INDIANAPOLIS   MOCLDY    69  66  90 SW10      29.81S
-EAGLE CREEK   MOCLDY    70  66  87 W9        29.80F
KOKOMO *+      CLOUDY    70  64  83 W21G26    29.77S
MARION +       CLOUDY    67  67  98 W10       29.77S FOG
MT COMFORT *+  CLOUDY    70  70 100 W12G17    29.81F
SHELBYVILLE    CLOUDY    72  68  87 SW12      29.82S
ZIONSVILLE +   PTCLDY    69  65  86 W12       29.81F

$$

INZ033-034-041-042-049-050-058-059-211100-
EAST CENTRAL INDIANA

CITY           SKY/WX    TMP DP  RH WIND       PRES   REMARKS
MUNCIE         CLOUDY    70  66  87 W10       29.77F

$$

INZ060-061-067>069-081>083-085>088-211100-
SOUTHWEST INDIANA

CITY           SKY/WX    TMP DP  RH WIND       PRES   REMARKS
EVANSVILLE     TSTM      71  67  87 VRB7      29.90S FOG
WASHINGTON +   CLOUDY    70  69  97 W8        29.85F

$$

INZ062-063-066-070>080-084-089>092-211100-
SOUTH CENTRAL AND SOUTHEAST INDIANA

CITY           SKY/WX    TMP DP  RH WIND       PRES   REMARKS
BLOOMINGTON    MOCLDY    69  67  93 W8        29.85F
NORTH VERNON + CLOUDY    70  70 100 SW9       29.85

$$




USA.gov is the U.S. government's official web portal to all federal, state and local government web resources and services.